Location: Ithaca
(42.4410°N, 76.4970°W)
Time: 23:30:35
(UTC-05:00)

Hubble Space Telescope - Visible Passes

Search period start: 21 January 2018 00:00
Search period end: 31 January 2018 00:00
Orbit: 537 x 541 km, 28.5° (Epoch: 21 January)

Date Brightness Start Highest point End Pass type
(mag) Time Alt. Az. Time Alt. Az. Time Alt. Az.
27 Jan 3.4 18:16:02 10° S 18:17:03 11° S 18:18:03 10° SSE visible
28 Jan 3.4 18:05:20 10° SSW 18:06:38 11° S 18:07:56 10° SSE visible
29 Jan 3.4 17:54:49 10° SSW 17:56:14 12° S 17:57:39 10° SSE visible
30 Jan 3.4 17:44:25 10° SSW 17:45:49 11° S 17:47:15 10° SSE visible
